Retour au catalogue

CZ-6A R/B

ActifSSO
NORAD 52152·ROCKET BODY·🇨🇳 China

Lancé Mar 29, 2022 depuis Taiyuan Satellite Launch Center

Loading…

Prochains Passages (prochaines 24 heures)

TLE

FraisSource: Space-Track

Époque: Sep 14, 2026, 02:12 UTC

1 52152U 22031C   26257.09223438  .00001105  00000-0  75588-4 0  9990
2 52152  97.7925 104.2561 0015813 267.0934  92.8484 15.08184614244704

Suivez CZ-6A R/B en temps réel avec AllMySat

Download on the App Store